Skip Page Navigation
NASA JPL Caltech
NASA Logo - Jet Propulsion Laboratory + View the NASA Portal
+ Center for Near-Earth Object Studies
JPL Home Earth Solar System Stars & Galaxies Technology
JPL Solar System Dynamics
BODIES ORBITS EPHEMERIDES TOOLS PHYSICAL DATA DISCOVERY FAQ SITE MAP
JPL Small-Body Database Browser
Search: [ help ]  
200052 Sinigaglia (2008 OO13)
Classification: Main-belt Asteroid          SPK-ID: 2200052
Ephemeris | Orbit Diagram | Orbital Elements | Mission Design | Physical Parameters | Discovery Circumstances ]

[ show orbit diagram ]
Orbital Elements at Epoch 2459000.5 (2020-May-31.0) TDB
Reference: JPL 16 (heliocentric ecliptic J2000)
 Element Value Uncertainty (1-sigma)   Units 
e .1572876836869608 3.9493e-08  
a 2.426511559775391 1.5858e-08 au
q 2.044851177098685 1.0306e-07 au
i 5.760126337479884 4.3445e-06 deg
node 192.0169045922992 3.8937e-05 deg
peri 134.2939227588822 4.2438e-05 deg
M 34.77612752578595 1.6323e-05 deg
tp 2458867.132290418956
(2020-Jan-18.63229042)
6.2216e-05 TDB
period 1380.613048809858
3.78
1.3534e-05
3.705e-08
d
yr
n .2607537284326944 2.5561e-09 deg/d
Q 2.808171942452097 1.8352e-08 au
  Orbit Determination Parameters
   # obs. used (total)      387  
   data-arc span      7053 days (19.31 yr)  
   first obs. used      2000-05-02  
   last obs. used      2019-08-24  
   planetary ephem.      DE431  
   SB-pert. ephem.      SB431-N16  
   condition code      0  
   norm. resid. RMS      .52199  
   source      ORB  
   producer      Otto Matic  
   solution date      2020-Feb-24 23:41:37  

Additional Information
 Earth MOID = 1.03852 au 
 Jupiter MOID = 2.54123 au 
 T_jup = 3.486 
[ show covariance matrix ]

Ephemeris | Orbit Diagram | Orbital Elements | Mission Design | Physical Parameters | Discovery Circumstances ]

Physical Parameter Table
Parameter Symbol Value Units Sigma Reference Notes
absolute magnitude H 16.4   n/a MPO436975  

200052 Sinigaglia           Discovered 2008 July 31 by F. Tozzi and G. Sostero at Skylive Observatory, Catania.
Gianfranco Sinigaglia (1929-1990) was a teacher of radioastronomy and applied electronics at the Physics Institute of Bologna University. As an electronic engineer he designed and often invented acquisition devices and instrumentation needed by the then developing new science of radioastronomy.
NOTE: some special characters may not display properly (any characters within {} are an attempt to place the proper accent above a character)
Reference: 20090409/MPCPages.arcLast Updated: 2009-04-10

Alternate Designations
 2008 OO13 = 2001 UZ98 
Ephemeris | Orbit Diagram | Orbital Elements | Mission Design | Physical Parameters | Discovery Circumstances ]
ABOUT SSD CREDITS/AWARDS PRIVACY/COPYRIGHT GLOSSARY LINKS
FirstGov 2020-Oct-21 09:55 UT
(server date/time)  
NASA Home Page
Site Manager:   Ryan S. Park
Webmaster  Alan B. Chamberlin